TITAN 3C TRANSTAGE DEB, 26780

Orbit data source: Space-Track

TITAN 3C TRANSTAGE DEB, 26780 is space debris in HEO originally from a launch on Tue, 21 Dec 1965 UTC launched from the Air Force Eastern Test Range (AFETR). Debris objects in space refer to the collection of defunct objects orbiting the Earth. Examples of debris include non-operational satellites, rocket bodies, and fragments generated from explosions, collisions, or faulty payload assembly.

Loading next visibility...
Identifier
26780, 1965-108AY
Orbit
HEO
Country
Flag of USUS
Related business
Manufacturer
Unknown
Mission
Spacecraft
Bus & Motor
Unknown
Mass
Unknown
Launch date (UTC)
1965-12-21 (60 years ago)
Launch vehicle
Unknown
Launch site
Air Force Eastern Test Range (AFETR)
Object type
Payload
Rocket body
Debris
Shape & HBR
Unknown shape, 0.5 m
Radar Cross Section
Medium (>0.1 m² and <1 m²)

Expand to show TLE details & history
Last TLE update: 1 year ago

TLE from 1 year ago
0 TITAN 3C TRANSTAGE DEB
1 26780U 65108AY  25052.34620806 -.00000021  00000-0  00000+0 0  9999
2 26780  26.9325 345.0908 6313863 256.3504 304.5023  2.58769419230021
Epoch: 2025-02-21T08:18Z
TLE epoch observation values (Epoch: 2025-02-21T08:18:32.376Z)
Latitude
21.52251°
Longitude
-161.83517°
Altitude
16,431.432 km
Speed
4.143 km/s
True Right ascension
07h 37m 14s
True Declination
21° 29' 09"
Sunlit
Object was in daylight at epoch
Visualization orbit readout
Latitude
Unknown
Longitude
Unknown
Altitude
Unknown
Speed
Unknown
Apparent Right ascension
Unknown
Apparent Declination
Unknown
Sunlit
N/A
Visualization observer readout
Local Sidereal Time
02:55:49
Azimuth
Unknown
Elevation
Unknown
Doppler factor
Unknown
Orbital elements
Apogee altitude
30,187.529 km
Perigee altitude
1,883.919 km
Semi-major axis
22,413.861 km
Eccentricity
0.63139
Inclination
26.9325°
RAAN
345.0908°
Arg. of periapsis
256.3504°
True anomaly
229.57316°
Mean anomaly
304.5023°
Eccentric anomaly
268.34168°
Mean motion
0.6468 °/min
Orbital period
556.59 mins
BSTAR
0
Loading maneuver chart data...
Computing Atmospheric mass density...

Documentation

Showing up to 5 results
|